Weather History for Bartow, FL

Change the Weather History Date:

Sunday, July 13, 2014

  Actual Average Record
Temperature  
Mean Temperature 80 °F -  
Max Temperature 89 °F 92 °F 98 °F (1981)
Min Temperature 71 °F 72 °F 68 °F (1936)
Cooling Degree Days 15    
Growing Degree Days 30 (Base 50)    
Moisture  
Dew Point 75 °F    
Average Humidity 87    
Maximum Humidity 100    
Minimum Humidity 55    
Precipitation  
Precipitation 0.42 in - - ()
Sea Level Pressure  
Sea Level Pressure 30.10 in    
Wind  
Wind Speed 3 mph (East)    
Max Wind Speed 17 mph    
Max Gust Speed 24 mph    
Visibility 10 miles    
Events Rain , Thunderstorm    
Averages and records for this station are not official NWS values.
T = Trace of Precipitation, MM = Missing Value Source: NWS Daily Summary

Daily Weather History Graph

Daily Weather History Graph

Search for Another Location

Airport:

Trip Planner

Search our weather history database for the weather conditions in past years. The results will help you decide how hot, cold, wet, or windy it might be!

Date:

Astronomy

Jul. 13, 2014 Rise Set
Actual Time 6:39 AM EDT 8:25 PM EDT
Civil Twilight 6:13 AM EDT 8:52 PM EDT
Nautical Twilight 5:41 AM EDT 9:23 PM EDT
Astronomical Twilight 5:08 AM EDT 9:56 PM EDT
Moon 9:27 PM EDT (7/13) 7:57 AM EDT (7/13)
Length of Visible Light 14h 38m
Length of Day
13h 46m
Full, 98% of the Moon is Illuminated
Jul 13
Full
Jul 18
Last Quarter
Jul 26
New
Aug 3
First Quarter
Aug 10
Full

Hourly Weather History & Observations

Time (EDT) Temp. Heat Index Dew Point Humidity Pressure Visibility Wind Dir Wind Speed Gust Speed Precip Events Conditions
12:15 AM 73.4 °F - - N/A% 30.14 in 10.0 mi SW 3.5 mph - N/A   Mostly Cloudy
12:35 AM 73.4 °F - - N/A% 30.14 in 10.0 mi Calm Calm - N/A   Scattered Clouds
12:55 AM 73.4 °F - - N/A% 30.14 in 10.0 mi Calm Calm - N/A   Clear
1:15 AM 73.4 °F - - N/A% 30.12 in 10.0 mi Calm Calm - N/A   Clear
1:35 AM 73.4 °F - - N/A% 30.12 in 10.0 mi Calm Calm - N/A   Clear
1:55 AM 73.4 °F - - N/A% 30.13 in 10.0 mi Calm Calm - N/A   Clear
2:15 AM 73.4 °F - - N/A% 30.12 in 10.0 mi Calm Calm - N/A   Clear
2:35 AM 71.6 °F - - N/A% 30.11 in 10.0 mi Calm Calm - N/A   Clear
2:55 AM 71.6 °F - - N/A% 30.12 in 10.0 mi Calm Calm - N/A   Clear
3:15 AM 71.6 °F - - N/A% 30.12 in 10.0 mi East 3.5 mph - N/A   Clear
3:35 AM 71.6 °F - - N/A% 30.11 in 10.0 mi East 3.5 mph - N/A   Clear
3:55 AM 71.6 °F - - N/A% 30.10 in 10.0 mi East 5.8 mph - N/A   Clear
4:15 AM 73.4 °F - - N/A% 30.10 in 10.0 mi East 3.5 mph - N/A   Clear
4:35 AM 71.6 °F - - N/A% 30.10 in 10.0 mi Calm Calm - N/A   Clear
4:55 AM 71.6 °F - - N/A% 30.09 in 10.0 mi SE 3.5 mph - N/A   Clear
5:15 AM 71.6 °F - - N/A% 30.08 in 10.0 mi ESE 3.5 mph - N/A   Clear
5:35 AM 71.6 °F - - N/A% 30.08 in 10.0 mi ESE 5.8 mph - N/A   Clear
5:55 AM 71.6 °F - - N/A% 30.08 in 10.0 mi SE 5.8 mph - N/A   Clear
6:15 AM 71.6 °F - - N/A% 30.09 in 10.0 mi ESE 3.5 mph - N/A   Clear
6:35 AM 73.4 °F - - N/A% 30.10 in 10.0 mi Calm Calm - N/A   Clear
6:55 AM 73.4 °F - - N/A% 30.10 in 10.0 mi NE 3.5 mph - N/A   Clear
7:15 AM 73.4 °F - - N/A% 30.10 in 10.0 mi ENE 3.5 mph - N/A   Clear
7:47 AM 73.4 °F - - N/A% 30.10 in 7.0 mi ENE 4.6 mph - N/A   Scattered Clouds
8:47 AM 77.0 °F - 77.0 °F 100% 30.12 in 10.0 mi East 3.5 mph - N/A   Scattered Clouds
9:47 AM 80.6 °F 86.2 °F 75.2 °F 84% 30.13 in 10.0 mi East 6.9 mph - N/A   Scattered Clouds
10:56 AM 84.2 °F 92.3 °F 75.2 °F 74% 30.14 in 10.0 mi SE 6.9 mph - N/A   Scattered Clouds
11:56 AM 84.2 °F 90.9 °F 73.4 °F 70% 30.14 in 7.0 mi WSW 9.2 mph - N/A Rain Light Rain
12:50 PM 78.8 °F - 75.2 °F 89% 30.14 in 10.0 mi West 9.2 mph - N/A Rain Light Rain
1:55 PM 84.2 °F 90.9 °F 73.4 °F 70% 30.12 in 10.0 mi West 6.9 mph - N/A   Mostly Cloudy
2:56 PM 86.0 °F 91.8 °F 71.6 °F 62% 30.11 in 10.0 mi Calm Calm - N/A   Mostly Cloudy
3:47 PM 82.4 °F 87.2 °F 71.6 °F 70% 30.10 in 10.0 mi West 5.8 mph - N/A   Mostly Cloudy
4:47 PM 87.8 °F 92.6 °F 69.8 °F 55% 30.08 in 10.0 mi NW 4.6 mph - N/A   Scattered Clouds
5:35 PM 89.6 °F 96.2 °F 71.6 °F 55% 30.06 in 10.0 mi North 3.5 mph - N/A   Partly Cloudy
5:55 PM 84.2 °F 90.9 °F 73.4 °F 70% 30.07 in 10.0 mi East 11.5 mph - N/A Thunderstorm Mostly Cloudy
6:15 PM 78.8 °F - 69.8 °F 74% 30.07 in 2.0 mi NE 17.3 mph 24.2 mph 0.03 in Rain , Thunderstorm Heavy Thunderstorms and Rain
6:35 PM 75.2 °F - 71.6 °F 89% 30.09 in 5.0 mi NNE 8.1 mph - 0.42 in Rain , Thunderstorm Light Thunderstorms and Rain
7:15 PM 75.2 °F - 75.2 °F 100% 30.08 in 10.0 mi ENE 4.6 mph - N/A   Clear
7:35 PM 77.0 °F - 77.0 °F 100% 30.08 in 10.0 mi NE 4.6 mph - N/A   Clear
7:55 PM 77.0 °F - 77.0 °F 100% 30.09 in 10.0 mi East 5.8 mph - N/A   Clear
8:15 PM 77.0 °F - 77.0 °F 100% 30.08 in 10.0 mi East 6.9 mph - N/A   Clear
8:35 PM 78.8 °F - 75.2 °F 89% 30.09 in 10.0 mi SE 5.8 mph - N/A   Clear
8:55 PM 78.8 °F - 77.0 °F 94% 30.09 in 10.0 mi SE 5.8 mph - N/A   Clear
9:15 PM 77.0 °F - 77.0 °F 100% 30.09 in 10.0 mi NE 3.5 mph - N/A   Clear
9:35 PM 77.0 °F - 77.0 °F 100% 30.09 in 10.0 mi NE 5.8 mph - N/A   Clear
9:55 PM 75.2 °F - 75.2 °F 100% 30.09 in 10.0 mi NE 3.5 mph - N/A   Clear
10:15 PM 75.2 °F - 75.2 °F 100% 30.09 in 10.0 mi East 3.5 mph - N/A   Partly Cloudy
10:35 PM 75.2 °F - 75.2 °F 100% 30.10 in 10.0 mi ESE 3.5 mph - N/A   Clear
10:55 PM 75.2 °F - 75.2 °F 100% 30.10 in 10.0 mi SE 3.5 mph - N/A   Clear
11:15 PM 75.2 °F - 75.2 °F 100% 30.11 in 10.0 mi Calm Calm - N/A   Clear
11:35 PM 75.2 °F - 75.2 °F 100% 30.11 in 10.0 mi Calm Calm - N/A   Clear
11:55 PM 75.2 °F - 75.2 °F 100% 30.11 in 10.0 mi Calm Calm - N/A   Partly Cloudy